Погода в Конковичах

Беларусь     52°09′38″N   28°42′21″E
темп.,
°C
ветер,
м/с
пор.,
м/с
влажн.,
%
обл.,
%
осадки,
мм/ч
давл.,
гПа
погр.,
м
10 мая, пн
пн1000:00+6вюв33625 0.0 102524
03:00+5ююв34715 0.0 102662
06:00+4ююв35735 0.0 102681
09:00+11юв45595 0.0 1027383
12:00+16юв44460 0.0 10261334
15:00+17юв44413 0.0 10251631
18:00+17вюв44510 0.0 1024977
21:00+10вюв47676 0.0 1025100
11 мая, вт
вт1100:00+8вюв38670 0.0 1026125
03:00+6вюв34720 0.0 102656
06:00+5в34730 0.0 102660
09:00+12в35570 0.0 1025414
12:00+16в45400 0.0 1024970
15:00+19всв44450 0.0 10221089
18:00+19всв45565 0.0 1021910
21:00+13всв368151 0.0 102085
12 мая, ср
ср1200:00+12всв310928 0.0 1020203
03:00+11вюв6119310 0.0 1020463
06:00+7в411940 0.0 1021350
09:00+11вюв7106919 0.0 1021957
12:00+14вюв795659 0.0 10191394
15:00+15вюв575343 0.0 10181499
18:00+14в4667100 0.3 1016688
21:00+10вюв378390 0.6 1014240
13 мая, чт
чт1300:00+9юв3795100 0.8 1012272
03:00+9ююв4995100 4.5 1011501
06:00+8юв4994100 0.7 1011390
09:00+10юв6984100 0.7 1011671
12:00+13юв71066100 0.1 10101472
15:00+16ююв61054100 0.2 10091417
18:00+13ююв5126997 0.0 1010653
21:00+13юв41070100 0.0 1010371
14 мая, пт
пт1400:00+11юв41095100 1.0 1010364
03:00+11в41096100 1.6 1008346
06:00+12вюв3799100 1.2 1007253
09:00+13ююв2394100 1.3 1007270
12:00+14юв2287100 0.7 1007391
15:00+14ююз129181 1.6 100769
18:00+18юз34646 0.1 10071107
21:00+13ююв228427 0.1 100811